カタログに戻る

GNOMES-1

運用中気象SSO
NORAD 46266·PAYLOAD·🇺🇸 United States

打ち上げ Aug 30, 2020 から Cape Canaveral Space Force Station

Loading…

次のパス (今後24時間)

TLE

最新Source: Space-Track

元期: Sep 14, 2026, 10:00 UTC

1 46266U 20059B   26257.41714627  .00001856  00000-0  15092-3 0  9994
2 46266  97.7974 108.0120 0012258  85.7591 274.5033 15.00765143328979

AllMySatでGNOMES-1をリアルタイム追跡

Download on the App Store